Wind_Speed
4 4 5 4 2 2 2 3 4 5 5 6 7 8 9 10 10 11 12 12 12 12 12 12 13 13 14 15 16 16 16 16 16 15 15 15 14 13 13 13 13 13 13 13 14 14 14 15 17
5 4 5 5 5 4 3 4 5 6 6 7 8 9 11 12 12 13 13 14 14 14 15 15 15 15 16 17 18 18 18 19 19 18 18 17 17 15 15 14 14 13 13 13 13 13 13 14 15
5 5 5 5 7 6 4 4 7 8 9 9 10 12 13 14 15 15 16 16 17 17 18 18 18 19 19 19 19 20 20 21 21 21 20 20 20 19 17 16 15 14 14 13 13 13 13 13 14
5 6 8 8 8 6 5 7 8 9 11 12 14 15 17 18 18 18 19 19 20 20 21 22 22 22 22 22 21 22 22 22 23 24 23 23 22 22 20 19 17 16 15 14 13 13 12 12 13
7 8 10 9 9 9 9 9 10 11 13 15 16 18 20 20 20 21 22 24 24 25 25 25 25 25 25 26 25 25 25 25 25 26 26 26 25 24 24 23 21 19 17 16 15 14 13 12 12
9 10 11 12 12 13 12 12 12 14 15 17 19 20 21 22 22 24 25 26 27 27 27 27 27 28 28 28 29 29 29 28 28 27 28 28 27 27 26 26 25 23 21 19 17 15 14 13 12
11 12 14 14 15 14 14 14 15 17 18 19 20 22 22 23 23 24 25 26 27 28 28 28 28 28 29 29 30 31 31 30 30 29 29 29 29 28 28 28 27 25 24 22 20 18 16 15 13
13 15 16 16 16 15 15 17 18 19 20 20 22 23 23 24 24 25 25 25 26 26 27 27 27 27 28 28 29 30 32 32 32 31 30 29 29 29 30 30 29 27 26 24 22 20 19 17 15
15 16 18 19 18 16 16 17 18 18 20 21 21 22 23 24 23 23 23 24 25 25 26 26 26 26 26 26 27 28 30 31 32 32 32 31 30 30 30 30 30 29 27 25 24 23 21 20 17
17 18 20 20 17 16 16 18 18 19 19 20 21 22 22 21 21 22 22 22 23 23 23 23 23 23 23 24 24 25 27 29 30 31 32 32 32 30 29 29 30 29 28 27 25 24 23 22 20
18 20 20 19 14 15 15 16 18 19 20 21 21 20 20 20 20 20 20 20 21 21 21 21 21 22 22 22 22 23 23 25 26 28 30 31 31 31 30 29 30 29 28 27 26 25 24 24 23
19 19 17 15 13 15 15 16 17 18 20 20 19 19 19 19 19 19 19 19 19 19 19 19 20 20 20 20 20 20 21 21 23 24 26 28 29 30 30 30 30 30 29 29 28 26 24 23 24
19 17 17 16 14 15 15 14 15 18 19 18 18 19 19 18 18 17 17 17 18 18 18 19 19 19 19 19 19 19 19 20 21 22 23 24 26 27 28 29 30 29 29 29 30 28 27 25 24
18 17 17 15 13 13 13 14 15 16 16 17 17 17 17 16 16 16 16 17 18 18 18 18 18 19 19 19 18 17 17 17 17 19 20 22 23 25 26 27 28 29 29 27 29 28 28 28 26
18 17 15 14 12 11 12 13 14 14 15 14 13 14 14 14 14 15 16 17 17 18 18 19 19 19 19 18 17 16 16 16 16 16 17 19 21 23 25 25 26 28 29 29 29 29 28 28 27
18 15 15 14 12 11 12 12 12 13 12 11 11 11 12 12 13 14 15 17 17 18 19 20 19 19 19 18 17 16 14 13 14 14 15 16 18 20 22 24 25 27 28 28 28 29 29 29 28
17 15 14 13 12 10 10 10 10 10 10 10 10 10 10 11 13 14 15 16 18 19 19 19 19 19 19 18 17 16 14 12 12 12 12 13 15 17 19 21 23 25 27 28 28 28 29 29 29
16 15 15 14 12 11 10 10 9 8 9 8 8 9 10 11 13 14 15 17 18 18 19 19 19 19 19 18 18 16 14 12 11 9 9 9 11 13 15 17 20 22 24 26 26 27 29 29 29
15 13 14 13 12 11 11 10 8 8 7 6 7 9 10 11 12 13 15 16 17 18 18 19 19 19 19 19 19 18 16 14 12 10 8 7 7 8 10 13 16 19 21 23 24 26 27 29 29
14 12 12 11 11 11 10 8 7 6 5 5 6 8 9 10 12 13 14 15 16 17 18 19 19 20 20 20 19 19 17 16 14 12 10 7 6 6 7 9 12 15 18 20 22 24 25 27 28
11 9 10 11 11 10 9 8 5 3 3 3 6 7 8 9 11 12 13 14 16 17 18 19 19 20 20 20 20 19 19 17 16 15 13 10 8 6 6 7 9 11 13 16 19 21 24 25 26
9 9 10 10 10 10 9 6 4 2 0 2 5 7 7 8 10 11 12 14 15 16 17 18 19 20 20 20 20 20 20 19 18 17 16 14 11 9 7 6 6 8 10 12 16 18 21 23 25
10 10 10 9 9 8 6 4 2 2 2 3 4 5 6 7 8 10 11 13 14 15 16 17 18 19 20 20 20 20 20 20 19 18 17 16 14 11 10 8 6 6 8 9 12 16 18 21 24
11 10 10 9 9 7 5 3 3 4 3 4 3 3 4 5 7 8 10 11 13 14 15 16 17 19 19 20 20 20 20 20 19 19 19 17 16 14 12 10 8 7 7 8 9 12 15 18 20
11 10 10 10 10 8 6 5 5 5 4 4 3 3 3 4 6 7 9 10 12 13 14 15 16 17 18 19 20 20 20 20 20 20 19 19 18 16 15 13 11 9 8 8 8 10 12 15 18
11 11 10 11 11 10 8 6 5 5 5 4 3 2 2 3 4 6 7 9 10 12 13 14 16 17 18 18 18 19 19 19 19 19 19 19 19 18 17 15 13 12 10 9 8 9 11 13 16
11 10 10 11 12 11 8 6 5 5 4 4 3 2 2 3 4 5 6 8 9 11 13 14 15 16 17 18 18 18 18 18 19 19 19 19 19 19 18 17 16 15 13 11 10 9 10 11 13
11 11 11 11 11 11 9 8 8 6 4 3 3 3 2 2 3 4 5 7 9 11 13 14 15 16 17 17 18 18 18 18 18 19 19 19 19 19 18 18 17 16 15 14 13 11 11 11 12
11 11 11 11 11 10 8 7 7 7 6 5 4 3 2 1 2 3 5 7 9 11 13 14 15 16 17 18 18 18 19 19 19 19 19 19 19 19 18 18 18 17 17 16 15 14 13 13 13
12 12 11 11 10 10 8 7 7 7 7 7 5 4 2 1 1 3 6 8 9 11 13 15 16 17 17 18 18 18 18 18 18 18 18 19 19 19 19 18 18 18 18 18 17 16 15 15 13
Wind_Direction
320 330 326 309 333 335 319 343 3 6 355 347 344 342 339 335 333 328 321 315 314 314 312 308 304 299 295 291 287 282 275 271 270 269 268 270 272 272 272 272 270 269 268 266 266 265 262 260 258
302 321 308 303 311 317 305 323 350 349 337 331 333 331 326 323 320 316 312 310 310 307 304 303 300 297 294 290 284 281 275 270 267 267 265 265 266 267 268 269 268 267 266 265 265 265 264 262 259
293 309 296 294 303 307 322 333 340 338 333 328 324 321 318 316 312 309 306 303 302 300 297 295 293 291 289 286 282 277 275 270 266 265 264 263 262 262 263 264 264 264 264 264 264 264 264 264 261
286 290 288 290 293 299 317 320 327 328 327 323 317 314 312 311 308 305 302 298 297 295 293 291 288 287 283 281 280 277 273 269 265 262 260 261 260 258 259 260 260 261 262 262 261 262 263 264 263
274 278 283 292 292 293 307 312 317 321 320 317 313 311 311 309 305 301 299 297 296 293 291 289 285 283 281 278 276 275 272 269 267 262 260 260 260 257 254 255 256 257 258 258 259 261 262 262 261
271 277 283 292 296 304 308 311 318 319 319 316 314 312 310 308 305 302 300 298 296 294 292 289 285 282 280 277 275 272 270 269 267 264 259 258 258 257 254 252 253 252 253 254 256 258 259 259 259
267 271 276 283 293 298 302 308 314 316 317 316 314 312 311 309 306 304 302 300 298 296 294 291 288 285 281 277 274 271 268 266 265 263 262 257 257 256 253 253 253 252 251 251 251 253 254 255 255
262 269 274 281 289 291 297 306 311 315 317 316 315 313 312 311 308 306 304 302 300 298 296 294 292 289 286 281 277 272 268 265 262 261 261 259 257 255 253 253 252 250 249 249 249 248 249 249 251
264 268 274 277 280 284 295 305 310 315 315 315 314 314 313 313 312 311 309 308 305 304 302 299 296 294 290 287 281 276 270 265 262 260 259 258 257 257 256 253 250 248 247 248 249 246 244 243 244
264 266 271 273 276 283 297 306 314 317 316 316 316 316 316 316 317 316 315 314 312 310 308 306 302 299 296 292 288 282 275 270 265 261 259 257 256 255 255 253 250 248 247 246 247 247 242 239 238
263 269 271 272 280 292 299 309 317 318 317 319 320 321 321 322 323 322 321 321 319 318 316 313 309 307 303 297 292 287 281 274 268 262 258 256 254 252 252 252 250 249 248 246 247 245 244 241 235
264 270 276 288 291 294 302 311 316 317 318 321 323 325 327 329 329 330 332 331 329 328 326 324 320 317 312 306 299 291 285 279 271 265 260 255 252 250 249 250 249 249 248 245 246 244 245 242 235
265 273 280 285 289 297 308 312 315 317 320 324 327 330 334 335 335 338 340 339 338 335 332 329 326 323 320 314 308 300 291 285 277 268 262 257 252 249 247 246 246 246 245 244 242 243 243 242 238
261 270 275 281 289 296 305 312 317 321 323 328 332 334 339 341 341 345 345 345 344 342 340 337 333 329 326 322 316 307 297 290 284 274 264 258 253 249 247 244 242 241 241 240 240 242 242 240 238
258 265 277 283 294 300 312 320 323 325 326 332 338 342 347 347 348 349 348 348 348 349 348 346 343 337 334 331 326 318 307 295 289 281 270 262 255 250 247 244 241 239 238 238 239 240 239 237 239
262 271 282 284 293 311 317 321 325 328 331 341 350 356 357 354 353 353 352 353 355 354 352 348 346 345 343 341 337 331 323 310 298 287 275 267 260 253 249 245 241 239 237 237 237 236 236 237 238
268 277 278 286 294 308 314 315 318 327 337 349 1 9 6 360 359 359 1 4 3 1 358 356 354 354 354 352 349 345 339 329 315 299 283 272 265 258 251 246 243 239 237 236 234 234 234 235 236
264 275 282 289 297 307 310 315 320 334 345 356 9 15 12 8 7 8 10 10 9 6 4 4 4 3 3 3 3 0 356 350 341 326 307 288 275 263 254 247 243 240 239 236 233 233 232 234 235
260 273 284 291 296 299 307 317 328 342 348 0 15 22 20 16 15 15 16 16 14 13 11 11 12 12 12 12 12 11 9 7 2 353 337 315 294 275 261 251 246 242 240 238 235 233 232 232 233
256 271 283 292 296 297 305 320 331 338 344 3 24 32 29 23 21 21 22 20 18 19 19 19 19 19 19 19 18 18 16 15 12 9 359 343 322 298 275 261 253 245 241 241 239 236 234 233 233
254 275 282 287 294 302 313 322 318 319 336 16 35 38 36 30 27 26 24 22 22 22 21 22 23 23 23 23 24 24 24 23 20 19 16 11 356 333 304 277 264 255 247 242 239 238 236 235 234
254 271 279 282 292 301 303 303 289 284 317 51 47 43 37 33 31 28 26 24 23 23 23 23 24 24 24 25 26 26 26 26 25 24 22 18 13 4 348 320 287 268 256 248 242 240 238 236 236
251 263 274 283 288 287 281 266 246 207 154 93 64 46 36 32 30 26 25 24 23 23 23 24 24 24 24 24 25 25 25 25 25 24 22 20 16 11 5 354 331 296 274 262 251 245 242 240 239
248 260 271 274 274 261 246 201 163 158 142 117 91 61 42 31 25 24 24 23 22 22 22 23 23 23 23 23 23 23 23 23 23 23 23 22 20 17 11 3 351 332 305 283 268 256 249 245 243
248 256 260 260 256 241 228 187 159 146 139 128 111 77 49 29 21 21 21 22 22 22 21 21 21 21 21 21 21 22 22 22 22 21 21 21 20 19 16 11 3 349 329 307 284 270 260 253 249
246 250 252 255 255 244 225 189 165 151 144 134 116 86 54 34 27 23 21 20 20 18 16 16 15 15 15 15 16 17 18 18 18 18 18 18 17 17 15 12 8 2 350 334 313 292 276 265 258
242 242 244 248 250 240 219 187 170 162 149 133 114 94 70 51 38 27 20 15 12 11 9 8 7 7 8 9 10 11 11 12 14 14 14 14 14 13 13 11 8 4 357 348 335 318 298 279 269
235 235 235 239 242 237 220 200 184 179 167 152 138 121 100 69 40 24 15 9 7 4 2 1 0 1 1 1 2 3 5 7 8 9 9 9 9 9 9 9 8 5 0 354 346 334 318 301 286
225 227 231 235 238 236 226 200 189 183 177 170 162 149 129 85 33 10 3 2 0 358 356 354 354 354 355 356 357 358 1 2 3 3 4 4 5 5 5 5 4 3 1 357 352 344 332 319 304
224 224 226 230 235 236 231 213 202 187 178 173 169 165 154 120 3 354 353 354 353 351 351 350 349 350 351 352 353 355 357 358 359 360 360 0 1 2 2 2 2 1 360 358 354 349 341 331 320
Height
5915 5913 5912 5910 5909 5908 5908 5908 5908 5908 5907 5906 5904 5904 5903 5902 5902 5903 5899 5895 5894 5893 5891 5890 5889 5888 5888 5887 5886 5886 5885 5884 5884 5884 5884 5883 5883 5883 5883 5883 5883 5883 5883 5882 5882 5882 5882 5882 5882
5914 5913 5911 5909 5907 5908 5908 5907 5907 5907 5907 5905 5904 5903 5902 5900 5900 5898 5895 5893 5891 5890 5889 5888 5887 5886 5885 5884 5883 5882 5882 5881 5881 5881 5881 5880 5880 5880 5880 5880 5880 5880 5880 5880 5880 5880 5880 5879 5879
5913 5912 5910 5908 5907 5907 5907 5906 5906 5906 5905 5904 5903 5901 5900 5899 5897 5895 5893 5891 5889 5887 5886 5884 5883 5882 5881 5880 5879 5878 5878 5877 5877 5877 5877 5877 5877 5877 5877 5878 5878 5878 5878 5878 5878 5877 5877 5877 5877
5913 5911 5909 5908 5907 5906 5906 5906 5905 5905 5903 5902 5901 5899 5897 5896 5894 5892 5890 5887 5885 5884 5882 5880 5879 5878 5876 5875 5874 5873 5873 5872 5872 5872 5872 5872 5873 5873 5874 5874 5875 5875 5875 5875 5875 5875 5875 5875 5875
5911 5910 5908 5907 5906 5905 5905 5904 5904 5903 5902 5900 5899 5896 5894 5893 5890 5888 5886 5883 5881 5879 5877 5875 5874 5872 5871 5870 5869 5868 5867 5867 5867 5866 5867 5867 5868 5868 5869 5870 5871 5871 5872 5872 5872 5873 5873 5873 5873
5910 5908 5907 5905 5904 5904 5903 5902 5902 5901 5900 5898 5896 5893 5891 5889 5886 5884 5881 5878 5876 5873 5871 5869 5868 5866 5865 5864 5863 5862 5861 5861 5860 5860 5860 5861 5862 5863 5864 5865 5866 5867 5868 5869 5869 5870 5870 5870 5870
5908 5907 5905 5904 5903 5902 5902 5901 5900 5898 5897 5894 5892 5890 5887 5884 5882 5879 5876 5873 5870 5868 5865 5863 5861 5860 5858 5857 5856 5854 5854 5854 5854 5854 5854 5855 5856 5856 5857 5859 5860 5862 5863 5864 5865 5866 5867 5868 5868
5905 5905 5903 5902 5902 5901 5900 5898 5897 5895 5893 5891 5888 5886 5883 5880 5877 5874 5871 5868 5865 5862 5859 5857 5855 5853 5851 5849 5848 5847 5846 5846 5846 5847 5847 5848 5849 5850 5851 5853 5854 5856 5858 5859 5861 5862 5864 5865 5866
5902 5902 5899 5899 5899 5898 5897 5896 5894 5892 5890 5887 5884 5882 5879 5876 5872 5869 5866 5863 5860 5857 5854 5851 5848 5846 5844 5842 5840 5839 5838 5838 5838 5839 5840 5841 5842 5844 5845 5846 5848 5849 5852 5854 5855 5857 5859 5861 5862
5899 5898 5896 5895 5895 5895 5894 5892 5891 5889 5886 5883 5881 5878 5874 5871 5868 5865 5862 5859 5855 5852 5849 5846 5843 5840 5838 5835 5833 5832 5830 5830 5830 5831 5832 5833 5835 5837 5838 5840 5842 5843 5846 5848 5850 5852 5854 5856 5858
5895 5894 5892 5890 5891 5891 5890 5888 5887 5885 5882 5879 5877 5874 5871 5868 5865 5861 5858 5855 5851 5848 5844 5841 5838 5835 5832 5830 5827 5825 5824 5823 5823 5823 5824 5826 5827 5829 5831 5833 5835 5837 5839 5842 5844 5847 5848 5851 5854
5892 5890 5889 5887 5887 5887 5886 5885 5883 5881 5879 5876 5873 5870 5867 5864 5861 5858 5855 5851 5848 5844 5841 5837 5834 5831 5828 5825 5822 5820 5818 5817 5816 5816 5816 5818 5820 5822 5824 5826 5828 5831 5833 5836 5839 5841 5843 5846 5849
5888 5887 5886 5885 5884 5884 5883 5882 5880 5878 5875 5872 5869 5866 5863 5861 5858 5855 5852 5849 5845 5842 5838 5835 5831 5827 5824 5821 5818 5815 5813 5811 5810 5810 5810 5811 5812 5814 5816 5819 5821 5824 5827 5830 5833 5835 5838 5841 5843
5885 5884 5883 5882 5882 5881 5881 5879 5877 5875 5872 5869 5867 5864 5861 5859 5856 5853 5850 5847 5843 5840 5836 5832 5828 5824 5821 5817 5814 5811 5808 5806 5805 5804 5804 5805 5806 5807 5809 5812 5814 5817 5820 5823 5826 5829 5832 5835 5838
5880 5881 5881 5880 5879 5879 5878 5877 5875 5872 5869 5867 5865 5862 5860 5857 5854 5851 5848 5845 5842 5838 5834 5830 5826 5822 5818 5814 5810 5807 5804 5802 5801 5799 5799 5799 5800 5801 5803 5805 5807 5810 5813 5816 5820 5823 5826 5829 5833
5877 5877 5878 5878 5877 5876 5877 5875 5873 5870 5867 5865 5863 5861 5859 5856 5853 5850 5847 5844 5840 5836 5832 5828 5824 5820 5815 5811 5807 5804 5801 5798 5797 5795 5795 5795 5795 5796 5797 5799 5801 5804 5807 5810 5813 5816 5820 5823 5827
5874 5874 5874 5875 5874 5873 5874 5872 5870 5867 5865 5863 5861 5860 5858 5855 5852 5849 5846 5842 5838 5834 5831 5827 5822 5818 5814 5810 5805 5802 5798 5796 5793 5792 5791 5791 5791 5791 5792 5794 5796 5798 5801 5804 5807 5810 5813 5817 5820
5872 5871 5871 5872 5872 5871 5870 5869 5867 5864 5862 5861 5860 5858 5857 5854 5851 5848 5845 5841 5838 5834 5831 5826 5822 5818 5813 5809 5805 5801 5797 5794 5791 5789 5788 5787 5787 5787 5788 5789 5791 5793 5795 5798 5801 5804 5807 5811 5814
5869 5869 5869 5869 5869 5868 5867 5865 5863 5861 5860 5859 5858 5857 5855 5853 5851 5848 5845 5841 5838 5835 5831 5827 5822 5818 5813 5809 5805 5800 5797 5793 5791 5788 5786 5785 5785 5784 5785 5786 5787 5788 5790 5792 5795 5798 5801 5804 5808
5866 5866 5866 5866 5865 5865 5863 5862 5861 5859 5859 5858 5856 5855 5854 5852 5850 5848 5845 5842 5839 5835 5831 5827 5823 5819 5814 5810 5805 5801 5797 5794 5791 5788 5786 5784 5783 5783 5782 5783 5783 5784 5786 5788 5790 5793 5795 5798 5802
5863 5863 5863 5863 5862 5861 5860 5860 5859 5858 5857 5856 5855 5854 5853 5852 5850 5848 5845 5842 5839 5836 5832 5828 5824 5820 5815 5811 5807 5803 5799 5795 5792 5789 5786 5784 5782 5781 5781 5780 5780 5781 5782 5784 5786 5788 5790 5793 5796
5860 5860 5860 5859 5859 5858 5859 5858 5858 5857 5856 5855 5854 5853 5853 5852 5850 5848 5846 5843 5840 5837 5833 5829 5825 5821 5817 5812 5808 5804 5800 5797 5793 5790 5787 5784 5782 5781 5779 5779 5778 5778 5779 5780 5782 5784 5785 5788 5790
5857 5858 5857 5857 5857 5857 5857 5857 5857 5856 5855 5854 5853 5853 5853 5852 5850 5848 5846 5844 5841 5838 5834 5830 5826 5822 5818 5814 5810 5806 5802 5798 5795 5791 5788 5785 5783 5781 5779 5778 5777 5776 5776 5777 5778 5779 5781 5783 5785
5854 5855 5855 5855 5855 5856 5855 5855 5855 5854 5854 5853 5853 5853 5852 5851 5850 5848 5846 5844 5841 5838 5835 5831 5828 5824 5820 5815 5811 5807 5804 5800 5796 5793 5790 5787 5784 5781 5779 5777 5776 5775 5774 5774 5774 5775 5776 5778 5780
5852 5853 5853 5853 5853 5853 5853 5853 5853 5853 5853 5853 5853 5852 5852 5851 5850 5848 5846 5844 5842 5839 5836 5832 5829 5825 5821 5817 5813 5809 5805 5802 5798 5795 5791 5788 5785 5782 5779 5777 5775 5774 5772 5771 5771 5771 5772 5773 5774
5848 5850 5852 5852 5851 5851 5851 5850 5852 5851 5851 5851 5851 5851 5851 5850 5849 5848 5846 5844 5842 5839 5836 5833 5829 5826 5822 5818 5815 5811 5807 5803 5800 5796 5793 5789 5786 5783 5780 5777 5775 5773 5771 5769 5768 5768 5768 5768 5769
5846 5847 5848 5849 5849 5849 5848 5849 5849 5849 5849 5850 5850 5850 5850 5850 5849 5848 5846 5844 5842 5839 5836 5833 5830 5826 5823 5819 5815 5812 5808 5804 5801 5797 5794 5790 5787 5784 5780 5777 5774 5772 5769 5767 5766 5765 5764 5764 5764
5844 5844 5845 5846 5846 5846 5847 5847 5848 5848 5848 5849 5849 5849 5849 5849 5848 5847 5846 5844 5842 5839 5836 5833 5830 5827 5823 5820 5816 5812 5809 5805 5801 5798 5795 5791 5788 5784 5781 5778 5774 5771 5768 5766 5764 5762 5761 5760 5760
5841 5842 5842 5843 5844 5844 5845 5848 5847 5847 5847 5848 5848 5848 5848 5848 5848 5847 5845 5843 5841 5839 5836 5833 5830 5826 5823 5820 5816 5812 5809 5805 5802 5798 5795 5791 5788 5784 5781 5778 5774 5771 5768 5765 5762 5760 5758 5756 5755
5838 5839 5840 5841 5842 5842 5843 5848 5845 5846 5846 5847 5847 5847 5847 5847 5847 5846 5844 5842 5840 5838 5835 5832 5829 5826 5822 5819 5816 5812 5808 5805 5802 5798 5795 5791 5788 5784 5781 5777 5774 5770 5767 5764 5760 5757 5754 5752 5750